Wetbulb
60.03 59.08 57.79 57.17 56.76 56.03 55.49 55.39 55.17 55.63 55.64 55.56 55.14 55.20 54.32 52.85 53.89 54.52 53.69 53.52 54.19 53.34 53.30 53.50 53.34 53.00 52.24 45.33 44.70 54.00 53.36 54.45 54.71 53.22 51.74 50.42 49.75 49.83 46.24 47.41 46.29 47.52 50.11 51.69 51.96 52.72 53.42
60.84 59.90 58.46 57.40 56.73 56.30 55.55 55.53 55.16 55.37 54.98 55.34 55.34 54.77 53.79 53.08 52.30 53.49 54.29 53.34 53.83 54.03 52.45 52.90 52.97 52.74 48.79 39.78 51.71 52.61 52.41 51.94 53.24 51.18 50.65 51.51 50.05 52.06 48.26 48.00 45.43 48.35 49.93 51.08 52.19 51.98 52.20
61.14 60.54 59.32 57.78 56.92 56.32 55.53 55.47 55.33 55.54 55.02 55.36 55.29 54.26 53.45 53.02 52.14 52.70 53.75 54.20 53.48 53.92 51.99 52.93 52.55 51.15 45.65 42.86 51.93 52.51 51.51 50.04 52.96 51.34 47.41 52.28 53.46 50.42 50.00 47.10 50.95 47.65 43.79 49.11 49.50 50.61 49.51
61.81 61.18 60.11 58.42 56.76 56.29 55.56 55.09 55.10 55.10 54.79 54.77 54.46 53.78 53.26 52.79 51.86 51.83 53.11 53.39 53.76 53.40 51.65 52.60 52.10 49.48 41.39 50.61 53.11 50.86 51.58 50.40 52.00 52.37 50.94 52.50 53.15 50.35 49.23 50.77 48.80 45.65 46.27 40.99 47.68 49.01 50.20
62.85 62.19 60.63 58.63 56.76 56.24 55.58 54.87 54.72 54.72 54.64 54.03 53.70 53.39 53.18 52.53 52.04 51.31 52.53 52.67 53.59 52.98 52.03 52.33 49.51 46.41 39.84 51.54 46.79 49.98 50.69 47.80 50.05 50.78 51.19 53.01 52.62 49.03 49.38 44.47 42.23 44.10 37.90 40.76 44.35 49.71 49.00
63.89 63.10 60.99 58.50 56.65 55.96 55.51 54.90 54.12 54.34 54.02 53.20 53.31 53.01 52.40 52.07 51.61 50.99 52.30 52.45 52.25 52.00 50.67 50.25 48.74 42.35 44.15 41.54 44.90 47.42 50.71 49.34 48.50 47.72 46.03 47.08 46.54 44.37 44.51 42.46 34.70 38.34 39.31 41.54 42.26 46.92 48.10
63.78 63.79 60.98 58.13 56.55 55.47 55.24 54.59 53.86 53.71 52.93 52.95 52.80 52.24 51.98 51.59 51.21 50.64 51.34 50.43 46.00 43.74 44.82 40.67 40.90 40.45 42.14 47.88 49.96 46.81 49.77 48.67 47.94 45.25 39.98 40.86 39.17 38.25 42.03 44.13 43.67 42.70 41.34 40.82 44.26 47.80 45.96
63.56 63.72 60.79 57.45 56.24 55.37 54.65 54.01 53.34 52.75 52.32 53.07 52.20 51.93 51.75 51.50 50.84 50.81 50.88 45.39 44.42 46.08 38.59 43.56 43.29 43.19 45.13 48.00 41.29 44.15 49.13 39.43 42.73 39.04 41.57 38.47 35.15 42.94 44.67 44.60 42.76 42.41 40.80 40.42 44.44 47.42 45.93
63.46 63.32 60.13 57.16 56.10 54.94 53.85 52.99 52.76 52.33 52.47 51.93 51.69 51.30 50.97 50.78 49.88 49.84 48.40 45.35 50.67 49.03 40.25 40.99 43.41 43.02 44.03 46.65 41.17 42.15 45.67 41.31 41.07 39.59 39.45 36.85 38.46 43.84 43.50 42.35 40.50 42.07 40.66 41.16 41.23 44.78 46.21
63.34 62.58 59.35 56.94 55.62 54.41 53.27 52.23 51.97 52.01 51.71 51.43 51.05 50.80 50.44 50.39 45.96 49.37 45.98 49.26 51.25 49.83 35.28 35.25 39.14 42.38 45.09 45.36 39.80 45.65 46.73 41.40 40.53 37.20 39.03 37.78 41.43 41.28 42.26 40.63 42.16 37.74 44.38 43.51 42.55 41.24 36.29
63.06 61.25 58.18 56.56 54.66 53.77 52.63 51.98 51.73 51.39 51.17 51.03 50.57 50.63 50.83 50.13 47.68 46.12 47.92 51.08 50.74 47.61 26.13 37.16 38.69 47.45 45.54 41.27 41.67 41.86 47.96 43.66 38.92 39.34 39.42 36.21 38.37 39.81 39.88 41.11 43.35 39.68 44.28 43.16 42.76 40.94 39.73
62.71 59.59 57.60 55.55 54.25 53.05 52.25 51.48 51.25 50.74 50.81 50.45 50.23 50.92 50.71 48.64 49.15 49.54 51.10 50.24 48.45 32.21 23.86 33.97 38.80 38.18 38.66 40.80 41.10 42.83 43.47 46.12 45.81 41.51 39.52 39.18 43.84 43.15 42.45 44.48 44.42 44.47 41.95 41.75 41.50 39.64 32.51
60.69 59.04 56.74 54.98 54.00 52.58 51.91 51.02 50.43 50.55 50.12 50.10 50.34 50.60 49.58 50.07 45.53 51.37 50.67 46.46 33.59 29.20 35.21 31.53 33.82 37.67 37.48 36.55 37.23 38.82 38.83 38.18 36.38 33.17 32.30 36.22 37.17 42.46 44.88 40.89 43.46 43.31 39.30 31.68 29.38 30.25 30.24
59.98 58.73 55.98 54.44 53.65 52.41 51.71 50.63 50.09 49.62 50.02 49.68 49.45 49.95 49.20 50.39 52.45 50.96 48.39 38.48 29.73 33.01 32.67 37.98 37.00 37.19 33.88 37.09 36.29 37.62 36.58 35.12 39.80 39.30 34.54 33.08 29.56 38.98 43.95 41.58 38.88 39.92 39.36 32.69 24.94 27.44 31.34
59.49 57.39 55.35 54.04 53.13 52.30 51.39 50.49 49.72 49.68 49.60 49.43 50.04 50.35 49.64 49.47 50.62 51.02 42.37 33.24 32.88 34.53 37.05 35.31 36.23 33.33 33.81 36.37 36.37 36.94 36.13 36.58 39.35 41.04 34.65 33.72 33.22 40.76 43.53 43.86 43.25 38.96 36.25 39.47 34.15 35.62 33.25
58.92 56.67 54.77 53.61 52.60 52.08 51.06 50.36 49.89 49.70 49.30 50.06 48.95 47.99 47.99 49.81 50.76 47.89 39.39 34.52 36.48 38.74 39.64 38.38 32.25 35.20 32.30 34.69 35.19 36.40 36.19 39.50 38.62 41.83 42.51 38.48 32.71 39.97 41.35 43.22 43.06 41.69 42.89 33.52 35.93 26.78 25.75
58.00 55.98 54.33 53.16 52.17 51.71 50.61 50.21 49.88 49.54 48.84 50.25 48.38 43.86 48.57 51.40 50.56 43.56 36.18 37.07 38.41 41.80 40.26 36.89 35.10 33.60 36.04 34.95 36.39 35.24 35.90 40.03 41.76 40.88 42.73 41.56 38.04 36.47 40.10 38.83 37.89 38.46 36.76 38.48 38.34 35.23 29.93
57.20 55.38 54.20 52.58 51.93 51.10 50.32 50.01 49.93 49.03 49.98 48.68 47.95 39.86 48.84 51.06 40.24 42.42 37.47 40.16 41.29 41.35 43.56 40.76 40.20 38.39 37.45 36.93 35.23 35.90 35.75 39.27 44.65 43.61 38.44 41.47 38.36 32.59 35.64 40.99 43.16 41.89 39.29 39.38 33.12 31.20 34.39
56.65 55.16 53.50 52.16 51.62 50.56 50.11 49.94 49.89 49.22 50.64 49.88 43.39 43.35 48.79 48.31 37.03 37.95 41.03 40.72 42.02 40.88 41.05 40.51 38.68 40.13 40.95 38.29 34.38 37.96 39.03 42.91 44.62 42.94 39.79 41.91 36.48 30.41 31.32 37.13 40.94 38.55 40.36 40.25 40.05 37.86 33.24
55.94 54.48 52.79 52.16 51.06 50.26 49.96 49.81 49.63 48.97 49.69 49.52 45.26 37.48 42.53 44.34 43.11 40.24 39.77 39.46 38.96 43.19 41.57 41.72 40.42 42.13 40.04 38.33 40.22 37.08 38.40 42.00 44.20 43.71 42.52 43.65 38.00 34.89 30.99 34.78 38.61 34.81 37.81 39.38 37.95 33.01 33.37
55.17 53.82 52.53 51.98 50.78 50.18 49.87 49.45 49.17 48.02 49.35 48.87 45.30 42.20 43.28 36.28 39.55 41.46 41.61 41.01 38.78 38.20 42.60 42.97 40.18 40.08 38.90 36.30 37.40 36.51 38.69 40.49 42.96 42.93 43.01 42.36 36.04 34.97 36.44 38.09 38.39 37.89 37.59 38.62 35.93 37.00 33.68
54.68 53.21 52.43 51.54 50.73 50.09 49.56 49.06 47.73 47.92 49.43 46.19 42.10 41.25 42.60 42.49 42.88 41.63 39.43 39.65 39.03 40.22 41.04 39.18 39.01 40.03 40.35 38.03 37.87 36.39 38.77 39.10 38.57 42.16 41.28 41.82 34.29 35.61 33.70 35.77 36.25 34.50 37.61 38.58 39.18 39.26 38.75
54.06 52.78 51.98 51.04 50.47 49.93 49.11 48.27 47.16 49.93 48.60 44.90 43.79 44.41 43.74 38.61 41.13 40.80 39.98 39.45 39.32 41.51 42.56 43.46 42.14 41.46 40.03 40.55 42.68 43.33 42.98 43.53 42.38 40.22 39.84 39.05 36.19 33.90 31.00 33.11 33.00 30.14 34.97 36.72 37.78 39.40 38.61
53.39 52.29 51.37 50.97 50.09 49.47 48.95 47.42 46.77 49.24 47.02 46.66 45.65 46.24 41.79 37.13 40.53 40.02 38.84 40.43 40.23 40.39 40.21 41.57 43.18 41.71 42.11 44.64 44.52 44.18 43.24 42.25 42.13 41.33 42.98 38.55 36.48 35.25 30.98 31.33 24.02 32.82 38.19 37.43 35.97 37.71 39.35
52.89 51.86 51.11 50.56 49.91 49.25 48.63 46.90 46.28 46.94 46.37 44.96 44.16 43.83 43.09 37.87 39.93 37.47 39.17 39.48 41.03 42.13 41.08 40.70 40.35 41.44 44.19 43.23 39.60 36.04 36.89 37.01 37.74 39.79 39.75 41.01 37.91 32.40 30.02 29.24 32.89 34.43 36.96 36.75 35.84 35.15 39.60
52.78 51.60 50.84 50.19 49.41 48.99 48.37 47.17 45.75 45.51 44.53 44.44 42.97 42.94 44.10 38.33 35.99 38.35 38.08 40.31 39.50 39.24 39.85 39.56 41.84 44.55 44.64 42.38 38.40 31.68 29.72 33.69 31.88 34.78 39.12 38.73 39.60 34.92 31.43 26.16 24.84 33.76 38.35 41.04 40.36 31.98 38.93
52.49 51.48 50.81 50.38 49.18 48.87 48.26 47.53 46.12 45.63 44.90 45.04 41.64 42.60 43.47 35.64 35.56 36.09 37.89 37.55 38.77 38.86 39.71 38.25 37.86 41.10 43.82 40.01 35.01 33.19 32.26 35.97 30.91 30.91 31.87 33.73 34.61 31.45 31.33 28.86 32.60 35.97 39.15 41.29 30.06 31.56 37.30
52.04 51.46 50.85 49.96 49.04 48.73 48.26 47.49 46.99 45.47 45.16 45.58 41.00 43.03 42.98 35.48 35.28 37.05 36.71 35.59 35.56 37.20 38.82 36.32 37.96 39.25 40.93 37.22 36.08 35.27 34.14 35.60 34.53 35.40 34.25 32.87 31.28 30.73 32.14 28.85 25.85 36.90 39.81 34.12 35.96 38.53 38.24
51.52 50.97 50.36 49.63 49.16 48.45 47.95 46.88 46.14 45.08 44.60 45.39 39.28 42.30 44.76 39.31 35.77 39.31 38.22 38.93 38.06 37.19 37.92 38.21 37.65 37.18 39.19 37.88 37.99 37.13 34.01 35.92 34.79 30.55 37.21 31.63 35.61 33.55 34.03 33.85 37.80 38.42 37.68 38.93 39.02 36.54 37.42
MSLP
1021.67 1021.58 1021.26 1021.22 1021.02 1020.91 1020.66 1020.48 1020.20 1019.96 1019.61 1019.17 1018.77 1018.52 1018.28 1018.04 1017.87 1017.47 1017.21 1016.91 1016.56 1016.41 1016.28 1015.82 1015.59 1015.35 1014.84 1013.95 1013.10 1013.68 1013.97 1014.18 1014.18 1014.29 1014.44 1013.77 1012.62 1012.22 1011.62 1012.19 1013.16 1013.67 1012.39 1012.82 1013.28 1013.17 1013.03
1021.06 1021.27 1021.06 1020.92 1020.74 1020.78 1020.64 1020.37 1019.92 1019.67 1019.22 1018.91 1018.61 1018.37 1018.13 1017.93 1017.62 1017.45 1017.04 1016.78 1016.48 1016.26 1016.20 1016.02 1015.73 1015.42 1014.63 1013.56 1013.30 1013.45 1013.72 1013.93 1014.02 1014.15 1014.38 1013.98 1012.70 1011.85 1011.57 1011.40 1012.95 1014.03 1013.08 1012.71 1012.87 1013.27 1013.43
1020.57 1020.44 1020.60 1020.37 1020.42 1020.31 1020.34 1020.22 1019.77 1019.52 1019.02 1018.66 1018.43 1018.18 1017.98 1017.67 1017.46 1017.21 1016.91 1016.60 1016.41 1016.20 1016.08 1015.94 1015.77 1015.05 1014.28 1013.78 1013.42 1013.50 1013.75 1014.02 1014.24 1014.24 1014.35 1014.19 1013.17 1012.31 1011.36 1010.90 1012.14 1013.32 1013.47 1013.33 1013.08 1013.00 1013.47
1019.79 1019.71 1019.80 1020.02 1019.97 1020.06 1020.03 1019.93 1019.54 1019.32 1018.84 1018.56 1018.23 1018.02 1017.77 1017.44 1017.34 1017.05 1016.80 1016.58 1016.28 1016.15 1016.00 1015.76 1015.59 1014.91 1013.70 1013.71 1013.69 1013.70 1013.72 1013.87 1014.18 1014.44 1014.49 1014.17 1014.35 1013.02 1011.28 1010.85 1011.65 1012.51 1013.52 1013.06 1012.77 1013.06 1013.50
1019.10 1019.04 1019.15 1019.25 1019.55 1019.48 1019.58 1019.41 1019.17 1019.06 1018.66 1018.41 1018.10 1017.92 1017.69 1017.32 1017.23 1016.93 1016.73 1016.53 1016.22 1015.98 1015.83 1015.66 1015.19 1014.58 1013.47 1013.98 1014.27 1014.32 1014.06 1013.74 1013.90 1014.38 1014.85 1014.98 1014.75 1012.56 1011.39 1010.78 1011.05 1011.04 1011.91 1011.86 1011.54 1012.35 1013.08
1018.40 1018.13 1018.32 1018.80 1019.01 1018.94 1019.14 1019.00 1018.84 1018.66 1018.39 1018.28 1017.97 1017.79 1017.60 1017.22 1017.11 1016.90 1016.61 1016.22 1015.84 1015.77 1015.45 1015.01 1014.69 1014.71 1013.61 1014.06 1015.12 1014.67 1013.86 1013.66 1013.48 1014.09 1015.13 1014.73 1013.88 1012.05 1011.29 1010.34 1009.51 1009.55 1009.78 1010.36 1010.79 1012.40 1012.79
1017.67 1017.42 1017.64 1018.22 1018.69 1018.63 1018.70 1018.54 1018.55 1018.45 1018.19 1018.07 1017.81 1017.62 1017.40 1017.05 1016.91 1016.75 1016.33 1015.50 1015.64 1015.30 1014.88 1014.56 1014.42 1014.16 1013.88 1014.06 1014.60 1014.44 1013.98 1013.89 1013.75 1013.79 1014.34 1014.92 1013.89 1011.71 1010.06 1009.43 1008.91 1009.16 1009.18 1009.88 1010.79 1012.02 1012.76
1016.94 1016.63 1017.26 1017.87 1018.17 1018.29 1018.29 1018.32 1018.31 1018.22 1017.92 1017.76 1017.61 1017.39 1017.19 1016.88 1016.72 1016.65 1016.24 1015.10 1014.95 1015.27 1014.50 1014.79 1014.60 1014.38 1014.21 1014.30 1014.23 1014.57 1014.07 1014.70 1013.36 1013.26 1013.79 1014.68 1013.86 1011.50 1010.58 1009.75 1009.40 1008.48 1008.93 1009.79 1011.29 1012.22 1012.90
1016.51 1016.33 1016.79 1017.29 1017.74 1017.90 1018.03 1018.03 1018.15 1017.93 1017.71 1017.48 1017.35 1017.16 1017.00 1016.67 1016.60 1016.43 1015.41 1015.09 1015.15 1015.04 1014.36 1014.65 1014.56 1014.14 1014.17 1014.28 1013.95 1014.27 1014.50 1014.69 1013.51 1013.18 1013.80 1014.10 1014.09 1012.47 1010.81 1010.36 1009.68 1008.85 1008.74 1009.39 1010.96 1012.32 1012.98
1015.86 1015.64 1016.34 1016.90 1017.22 1017.38 1017.74 1017.68 1017.98 1017.55 1017.41 1017.21 1017.06 1016.97 1016.77 1016.58 1016.84 1015.58 1015.22 1015.29 1015.32 1015.20 1014.62 1014.61 1014.27 1014.29 1014.21 1013.99 1014.34 1014.64 1014.56 1015.00 1014.45 1014.01 1014.28 1014.67 1014.56 1013.33 1011.42 1010.62 1009.98 1009.58 1009.59 1010.15 1010.82 1011.66 1011.52
1015.26 1015.47 1015.92 1016.42 1016.71 1017.05 1017.42 1017.35 1017.64 1017.30 1017.11 1016.92 1016.81 1016.71 1016.47 1016.48 1015.92 1015.49 1015.48 1015.40 1015.47 1015.21 1014.73 1015.08 1014.61 1014.36 1014.04 1014.06 1014.26 1014.91 1014.71 1014.81 1013.95 1013.90 1014.54 1015.10 1014.54 1013.35 1011.84 1011.03 1010.63 1010.51 1010.83 1010.94 1011.32 1011.47 1010.94
1014.63 1014.67 1015.26 1015.85 1016.21 1016.56 1017.07 1017.02 1017.38 1017.06 1016.90 1016.61 1016.51 1016.38 1016.17 1016.32 1016.05 1015.67 1015.60 1015.50 1015.18 1015.24 1014.98 1014.97 1014.63 1014.05 1013.77 1013.85 1014.26 1014.70 1014.53 1014.82 1013.32 1013.69 1014.85 1015.08 1014.94 1013.95 1012.32 1011.58 1011.37 1011.54 1011.69 1011.99 1012.20 1011.84 1011.39
1014.03 1014.30 1014.71 1015.18 1015.67 1016.00 1016.47 1016.73 1017.09 1016.78 1016.61 1016.42 1016.40 1016.11 1016.13 1015.86 1015.58 1015.73 1015.64 1015.13 1015.00 1014.54 1015.73 1014.74 1014.04 1013.74 1013.31 1014.00 1014.53 1014.82 1014.53 1014.31 1013.54 1013.70 1014.45 1014.85 1015.09 1014.52 1013.16 1012.43 1012.46 1011.59 1011.63 1011.99 1012.30 1012.05 1011.06
1013.34 1013.49 1014.23 1014.53 1014.99 1015.50 1015.97 1016.34 1016.58 1016.53 1016.42 1016.35 1016.53 1016.40 1016.29 1016.07 1015.87 1015.85 1015.47 1014.84 1014.35 1014.40 1014.62 1014.28 1013.73 1013.64 1013.40 1014.00 1014.43 1014.05 1014.50 1014.27 1013.73 1013.06 1014.07 1014.48 1014.86 1014.32 1013.38 1012.55 1012.22 1011.89 1011.31 1011.24 1011.29 1011.17 1010.99
1012.60 1012.82 1013.52 1014.13 1014.56 1014.93 1015.50 1015.96 1016.07 1016.26 1016.19 1016.28 1016.54 1016.12 1015.79 1016.31 1016.32 1016.03 1015.11 1014.52 1014.17 1014.46 1014.01 1013.68 1013.60 1013.00 1013.05 1013.67 1013.91 1013.87 1014.20 1013.74 1013.29 1013.16 1013.47 1013.66 1014.64 1014.89 1013.96 1013.39 1012.62 1012.36 1011.84 1012.44 1011.78 1011.14 1010.53
1011.60 1012.07 1012.94 1013.47 1014.12 1014.49 1015.05 1015.46 1015.55 1015.98 1015.92 1016.20 1015.97 1015.67 1015.69 1016.38 1016.42 1015.78 1014.95 1014.14 1013.95 1014.24 1014.07 1013.33 1013.06 1012.74 1012.34 1012.74 1012.80 1012.80 1013.36 1013.45 1013.33 1013.46 1013.63 1013.27 1014.10 1014.56 1014.49 1014.18 1013.32 1012.35 1012.51 1012.61 1012.51 1011.80 1010.60
1010.84 1011.38 1012.10 1012.72 1013.64 1014.14 1014.60 1014.96 1015.11 1015.50 1015.58 1015.99 1015.72 1015.31 1016.11 1016.26 1016.22 1015.28 1014.46 1013.76 1013.53 1013.70 1013.89 1013.94 1013.56 1012.88 1011.89 1011.97 1012.06 1012.27 1012.71 1013.08 1013.00 1013.14 1013.06 1012.88 1012.90 1014.64 1014.97 1013.78 1013.01 1013.09 1012.76 1012.67 1012.34 1012.30 1011.32
1009.91 1010.73 1011.72 1012.25 1013.03 1013.70 1014.10 1014.52 1014.73 1014.98 1015.36 1015.90 1015.21 1015.26 1016.26 1016.24 1015.82 1014.37 1013.87 1013.30 1013.20 1013.12 1013.36 1013.73 1013.58 1012.74 1011.72 1011.69 1011.94 1012.02 1012.20 1012.39 1012.72 1012.95 1012.87 1012.80 1012.99 1014.00 1014.35 1014.24 1013.60 1012.79 1012.34 1012.36 1012.33 1012.69 1012.12
1009.26 1009.66 1010.95 1011.71 1012.52 1013.15 1013.66 1013.97 1014.28 1014.57 1014.84 1014.65 1014.73 1015.38 1016.26 1016.03 1014.83 1013.45 1013.34 1013.10 1012.79 1012.66 1012.66 1012.58 1012.78 1012.90 1012.56 1011.82 1011.94 1012.20 1012.47 1012.96 1012.92 1012.65 1012.89 1012.66 1013.10 1014.13 1014.79 1014.37 1013.66 1013.15 1012.82 1012.73 1012.55 1012.74 1012.33
1008.42 1009.06 1010.16 1011.21 1011.91 1012.62 1013.16 1013.58 1013.76 1014.17 1014.51 1014.49 1014.24 1014.82 1015.65 1015.54 1014.59 1013.34 1012.63 1012.43 1012.36 1012.49 1012.42 1012.33 1012.14 1012.32 1012.15 1011.94 1012.10 1012.36 1012.71 1013.18 1013.19 1012.98 1013.19 1013.01 1012.96 1013.21 1013.17 1012.66 1012.35 1012.97 1012.76 1012.98 1013.12 1013.16 1012.49
1007.64 1008.70 1009.42 1010.74 1011.16 1012.13 1012.71 1013.12 1013.24 1013.73 1014.12 1014.47 1013.76 1013.13 1013.38 1013.98 1013.60 1013.03 1012.62 1012.18 1012.01 1012.12 1012.31 1012.33 1012.18 1012.16 1011.96 1011.94 1012.18 1012.50 1012.98 1013.29 1013.43 1013.60 1013.32 1013.06 1013.29 1013.83 1013.63 1013.37 1013.14 1012.86 1012.57 1012.68 1012.98 1012.97 1012.51
1007.01 1008.26 1009.04 1010.09 1010.89 1011.66 1012.23 1012.51 1012.70 1013.39 1013.98 1013.97 1013.09 1012.95 1013.47 1012.75 1012.75 1012.66 1012.51 1012.32 1012.16 1012.51 1012.45 1012.38 1012.20 1012.40 1012.30 1012.07 1012.66 1012.46 1012.99 1013.28 1013.22 1013.52 1013.33 1013.46 1013.85 1014.17 1014.22 1014.00 1013.78 1013.48 1013.12 1012.91 1012.83 1012.84 1012.61
1006.37 1007.60 1008.53 1009.62 1010.56 1011.23 1011.71 1012.03 1012.29 1013.00 1013.12 1012.97 1013.55 1013.35 1012.60 1012.85 1012.56 1012.19 1012.15 1012.58 1012.79 1012.86 1013.29 1013.09 1012.83 1012.52 1012.90 1013.54 1013.41 1013.08 1013.22 1013.10 1013.24 1013.33 1013.51 1013.72 1014.07 1014.53 1014.33 1014.43 1014.07 1013.56 1012.89 1012.91 1013.01 1013.04 1013.02
1006.20 1007.05 1007.95 1009.08 1010.09 1010.75 1011.33 1011.62 1011.98 1012.62 1012.69 1012.24 1012.69 1012.47 1012.02 1012.19 1012.27 1012.24 1012.92 1013.05 1013.19 1013.39 1013.16 1013.67 1013.42 1013.35 1014.68 1014.62 1014.18 1013.44 1013.32 1013.35 1013.42 1013.66 1013.73 1013.81 1014.31 1014.61 1014.67 1014.59 1014.12 1013.74 1013.57 1013.55 1013.54 1013.54 1013.60
1005.84 1006.58 1007.56 1008.64 1009.55 1010.33 1011.02 1011.34 1011.77 1012.27 1012.79 1012.69 1013.14 1012.68 1011.65 1011.91 1012.73 1013.70 1013.61 1013.83 1013.85 1013.98 1013.99 1014.21 1014.71 1014.98 1014.89 1014.48 1013.88 1013.85 1013.82 1013.77 1013.91 1013.98 1013.99 1014.01 1014.09 1014.57 1014.65 1014.11 1013.54 1013.79 1013.82 1013.76 1013.67 1014.42 1014.76
1005.04 1006.26 1007.18 1008.05 1009.14 1009.95 1010.73 1011.16 1011.69 1012.20 1012.81 1012.95 1013.32 1013.41 1012.36 1012.78 1014.41 1014.49 1014.44 1014.43 1014.17 1014.34 1014.60 1014.79 1015.03 1015.03 1014.64 1014.00 1013.81 1013.72 1013.76 1013.62 1014.12 1014.52 1014.74 1014.48 1014.35 1014.29 1014.50 1014.25 1013.65 1014.05 1014.26 1014.42 1014.40 1014.66 1015.57
1004.81 1006.01 1006.78 1007.77 1008.68 1009.59 1010.25 1010.90 1011.63 1012.12 1012.54 1012.56 1013.46 1013.79 1012.88 1013.88 1016.09 1016.13 1015.44 1015.48 1015.72 1015.41 1014.86 1015.41 1015.42 1014.92 1014.70 1014.19 1014.24 1013.88 1013.92 1014.25 1014.11 1014.38 1014.75 1014.86 1014.82 1014.75 1014.72 1014.56 1014.21 1014.98 1014.82 1014.88 1015.34 1016.29 1016.25
1004.36 1005.68 1006.82 1007.28 1008.55 1009.28 1009.93 1010.71 1011.39 1011.84 1012.28 1012.22 1013.81 1013.89 1013.14 1014.77 1017.11 1017.22 1017.10 1016.69 1016.81 1016.33 1015.43 1016.48 1016.32 1015.86 1015.19 1014.79 1014.64 1014.57 1014.31 1014.31 1014.29 1014.41 1014.38 1014.57 1014.66 1014.62 1014.68 1014.90 1015.10 1015.49 1015.20 1015.63 1016.42 1016.45 1016.74
1004.27 1005.62 1006.90 1007.30 1008.45 1009.20 1009.71 1010.66 1011.31 1011.76 1012.21 1012.16 1013.41 1014.01 1013.45 1014.41 1017.59 1018.15 1018.41 1018.30 1018.22 1018.08 1017.21 1017.13 1016.90 1016.60 1016.62 1015.92 1015.52 1015.59 1015.22 1015.22 1014.83 1014.65 1015.25 1015.11 1014.99 1014.76 1014.98 1014.85 1015.51 1015.84 1016.02 1016.55 1016.90 1017.16 1017.10
Wind_Speed
14 14 10 11 11 11 10 11 13 13 14 15 14 14 12 11 14 16 11 11 11 9 9 9 9 10 9 7 4 8 2 2 3 2 6 8 14 20 21 14 11 8 20 18 18 3 8
15 15 12 12 11 12 13 12 12 12 14 16 14 12 11 12 13 16 14 10 11 8 8 8 9 10 7 9 5 2 1 2 6 10 7 9 10 17 12 16 22 10 9 14 11 11 3
18 15 14 11 12 11 12 14 12 13 13 16 14 11 12 11 12 14 13 12 11 10 7 8 9 8 7 3 5 2 2 1 7 13 12 10 13 11 9 13 19 24 7 13 12 10 6
20 18 15 12 11 12 12 13 12 13 14 15 14 12 12 11 11 14 13 12 11 8 7 6 7 7 5 3 8 4 3 8 8 11 7 8 13 12 9 8 18 16 9 11 14 15 13
22 20 16 13 11 11 13 13 13 12 14 13 15 13 13 11 11 12 14 12 12 7 6 7 8 5 1 4 8 8 6 7 12 11 8 7 7 13 7 15 15 16 13 20 16 17 12
22 22 17 13 11 11 13 13 11 12 12 14 13 12 11 10 10 11 14 11 7 8 6 6 6 6 1 3 2 8 8 8 10 17 9 6 5 8 13 15 17 19 18 15 12 15 15
20 21 16 13 12 10 13 12 11 11 12 13 12 11 11 11 9 10 11 5 5 6 6 4 4 4 3 7 8 5 8 2 8 15 10 4 4 17 24 22 15 18 18 15 11 10 16
19 22 15 12 11 13 12 11 10 11 12 12 11 11 11 10 9 10 7 5 4 5 2 1 2 4 3 4 1 1 2 5 9 13 13 5 1 15 16 13 5 15 18 11 9 9 13
18 13 16 14 13 11 11 10 10 11 11 11 11 10 10 11 9 6 7 1 1 2 4 4 2 3 2 5 4 4 4 4 11 13 7 6 3 11 15 11 11 10 16 16 13 11 10
18 16 17 14 13 10 10 8 10 10 10 11 10 11 10 8 4 2 4 4 1 2 2 2 3 1 2 4 3 3 5 2 1 11 8 3 1 11 17 14 13 14 11 8 10 13 8
17 17 17 15 13 11 11 8 10 8 10 10 11 11 10 7 3 4 3 4 1 4 3 3 3 1 3 3 3 1 3 1 7 13 6 4 9 12 18 15 8 6 6 7 9 12 7
21 20 19 17 14 12 11 7 8 8 9 9 11 11 4 3 4 2 3 2 4 3 3 2 1 2 3 1 4 5 1 5 10 10 9 3 2 7 7 13 2 10 11 8 8 9 8
17 21 20 18 15 13 10 7 6 7 7 8 9 1 6 3 1 5 3 4 3 2 1 1 4 2 3 5 4 2 3 3 4 6 0 5 2 2 7 12 5 13 16 6 5 4 4
22 22 22 19 18 14 11 7 6 4 4 4 1 2 2 3 2 4 4 4 2 4 1 2 3 3 3 3 3 1 3 3 0 3 4 1 4 5 4 11 6 13 14 5 6 7 10
23 23 22 20 18 15 11 8 4 3 2 2 5 3 3 3 1 4 4 2 3 3 1 6 3 2 4 6 4 2 1 2 4 2 2 4 4 1 8 1 5 13 11 5 3 2 1
24 25 24 21 18 16 12 9 5 3 1 9 4 3 3 1 4 4 4 2 2 2 4 7 1 3 5 8 6 6 3 3 4 1 0 3 5 5 6 5 1 6 9 4 1 4 4
25 26 25 22 19 16 13 10 6 3 4 11 3 3 4 2 4 5 1 3 2 3 2 1 1 2 1 7 3 2 3 6 3 3 2 6 5 5 8 7 11 5 5 3 1 3 4
27 28 26 23 20 17 14 11 7 5 12 9 2 2 3 3 3 1 2 2 1 5 7 3 3 4 1 3 4 1 5 4 6 9 5 1 5 5 6 3 3 8 9 11 5 5 3
28 29 26 24 21 17 15 12 10 10 19 5 4 3 2 2 3 5 4 4 1 4 5 4 3 4 4 2 3 3 3 2 3 3 2 3 5 5 2 4 4 6 10 7 9 4 5
29 29 26 23 20 18 15 13 11 10 16 4 4 4 3 3 4 2 5 5 7 2 3 1 2 5 3 2 2 5 5 3 4 1 3 4 6 2 2 3 7 9 14 12 11 5 9
30 30 28 24 22 19 16 13 10 10 17 5 4 4 4 5 6 7 2 3 7 5 2 1 2 4 2 2 4 4 4 6 3 2 2 3 2 3 4 5 3 4 11 15 14 15 13
30 30 28 25 22 19 16 13 10 15 17 4 4 4 4 5 6 8 4 3 4 6 3 3 1 0 2 3 5 4 5 2 2 3 2 1 2 2 1 2 2 4 6 7 12 15 15
31 30 28 25 22 19 16 13 12 20 16 4 2 0 4 5 8 9 4 5 5 3 6 6 3 5 7 6 4 4 4 4 2 3 6 3 4 2 2 1 3 6 6 9 7 7 8
29 30 29 25 22 19 16 14 13 21 14 1 3 3 4 7 8 5 6 5 7 4 7 4 3 2 6 4 1 5 6 5 5 4 2 5 3 1 1 3 4 4 2 2 2 2 2
32 31 29 26 22 19 16 14 12 17 15 2 3 3 3 7 7 6 9 7 8 7 7 7 6 4 2 2 2 4 3 3 4 4 2 3 4 2 3 4 2 4 3 2 2 6 8
32 31 30 26 23 20 18 16 13 14 13 4 3 1 1 8 4 5 8 3 7 5 5 4 4 1 4 4 3 3 2 1 3 2 4 2 4 4 1 3 3 9 5 4 3 7 7
32 31 29 27 25 22 19 18 17 14 12 4 4 2 2 6 3 2 3 5 2 1 2 3 2 1 1 3 3 2 2 3 3 5 5 3 3 6 6 4 1 6 7 2 5 4 9
32 30 28 27 25 23 20 17 16 14 13 1 6 2 2 5 6 3 2 4 3 2 3 5 4 2 2 3 1 1 2 2 3 2 2 5 4 4 4 4 6 5 4 4 5 5 10
31 29 26 25 23 22 21 19 19 12 13 5 4 3 6 8 7 6 9 9 7 6 2 3 3 3 2 1 2 1 3 2 2 4 2 4 3 2 3 3 5 2 3 3 4 8 10
Wind_Direction
284 283 286 291 296 303 306 317 324 328 324 322 329 334 335 335 330 323 315 316 321 324 329 341 333 335 284 229 267 111 83 84 148 95 269 219 211 203 209 190 194 306 198 187 151 182 124
276 280 281 282 289 298 308 310 316 320 321 322 324 331 333 326 328 320 319 309 312 323 317 327 322 320 261 249 49 28 103 303 193 154 253 230 225 205 231 186 177 231 239 199 172 190 125
266 264 266 268 281 284 299 305 313 319 320 324 326 330 330 328 327 317 314 319 308 322 304 316 315 294 279 330 317 337 206 201 211 192 232 244 263 220 235 190 186 205 231 210 212 198 218
259 252 249 255 268 284 291 302 308 315 322 329 333 325 321 320 320 315 313 310 315 309 293 299 307 287 263 53 329 251 305 212 213 224 239 285 283 285 226 181 182 166 200 183 198 200 223
260 254 245 239 255 268 280 290 306 311 313 323 324 324 320 321 314 314 315 306 306 286 286 273 258 288 302 129 12 321 276 258 250 197 183 273 253 209 183 186 185 172 196 214 161 192 180
265 256 230 228 243 258 275 286 302 309 320 323 321 329 319 319 308 317 315 297 302 266 226 239 250 244 131 2 80 284 280 277 210 170 164 218 259 187 189 181 188 190 219 190 166 185 195
272 267 215 211 237 257 267 280 300 309 318 317 319 324 313 321 314 318 304 247 204 188 230 350 5 315 356 354 156 329 9 314 216 163 190 76 224 186 182 189 197 195 211 182 179 176 194
274 277 209 202 226 247 263 281 298 306 314 320 325 323 314 319 318 311 272 262 29 2 175 181 288 280 293 313 218 77 354 15 207 180 116 109 201 193 178 198 222 198 193 162 145 162 198
275 238 202 197 224 243 262 281 298 306 320 323 323 319 323 319 317 280 244 289 1 309 270 121 28 319 347 311 43 47 92 241 171 175 139 109 239 260 174 170 183 175 193 176 169 159 197
268 215 195 200 222 236 255 275 294 309 319 318 321 320 314 318 287 190 215 139 182 303 262 117 137 45 247 276 87 18 65 71 205 133 104 53 9 228 164 159 183 175 212 162 148 173 207
277 195 191 201 215 225 249 270 290 314 317 318 319 310 300 250 329 225 59 158 274 235 250 55 72 20 290 308 105 347 105 193 134 125 160 124 214 211 175 164 170 129 185 178 181 213 237
278 188 192 197 209 214 241 262 286 304 310 316 327 311 268 188 244 27 172 195 231 239 74 34 91 183 194 91 79 355 336 219 130 109 41 133 342 222 191 152 130 141 155 165 199 223 229
193 194 193 195 205 209 226 247 278 299 324 346 337 6 190 161 37 148 190 220 242 329 314 18 114 155 54 39 45 349 136 107 169 149 247 65 58 166 235 135 155 169 155 143 173 204 245
202 190 191 196 199 206 215 231 263 294 337 357 354 248 90 6 159 178 225 238 310 95 196 221 124 144 77 94 5 293 63 117 178 198 132 132 117 135 150 186 179 204 191 172 194 194 193
200 186 191 195 198 201 205 216 239 279 342 126 180 179 142 81 215 258 258 251 27 64 131 161 147 154 117 136 146 123 266 90 100 65 146 133 76 231 202 4 220 208 232 20 331 40 342
192 186 190 192 198 198 197 208 204 235 195 169 184 190 112 131 259 255 257 71 63 117 235 176 334 269 151 127 168 181 144 158 107 59 167 124 117 173 131 262 75 217 141 163 288 182 212
188 186 184 188 199 195 192 197 183 199 187 176 195 206 86 207 251 251 307 65 102 162 209 137 294 116 96 133 133 99 94 135 142 168 270 212 141 118 158 219 178 161 171 229 314 353 312
182 184 185 184 196 191 188 188 174 152 153 171 211 181 93 223 238 198 203 149 314 152 199 152 298 294 156 128 128 98 134 67 158 159 177 218 115 149 180 352 323 298 233 216 223 188 264
186 183 181 184 191 187 187 184 169 161 189 158 156 119 110 261 216 186 137 142 318 162 180 187 164 218 276 128 133 130 104 107 144 148 177 189 133 123 162 265 215 238 220 249 249 11 213
181 180 177 183 188 185 185 186 170 179 201 238 167 145 151 217 276 243 168 135 129 102 104 290 65 156 186 127 64 138 119 111 120 96 12 280 171 272 231 70 149 204 220 207 219 231 230
175 178 174 182 184 183 184 184 169 184 187 223 224 146 158 181 213 200 226 153 147 129 108 229 179 290 212 101 114 113 95 133 135 128 219 309 123 81 61 67 74 280 222 221 215 232 244
172 175 174 180 183 180 180 175 157 173 163 225 189 174 189 136 139 189 179 122 139 118 331 93 88 320 253 75 14 150 145 150 186 191 201 65 116 99 285 14 302 270 247 247 235 238 247
171 174 172 179 179 177 176 164 154 171 187 199 136 167 261 138 177 199 147 127 128 157 72 52 47 102 92 76 49 59 82 126 333 188 197 208 140 175 140 343 309 264 266 245 234 261 276
173 172 170 173 175 172 171 159 160 182 204 230 162 174 208 157 195 151 148 129 128 77 105 70 20 320 36 316 238 137 127 119 108 85 158 171 157 109 104 239 228 79 30 344 289 311 345
170 170 169 170 170 168 165 147 151 186 193 210 152 214 201 142 131 147 145 127 128 122 93 79 54 32 16 222 158 142 139 174 104 85 144 273 180 144 248 230 23 139 98 19 275 94 35
166 170 170 165 166 164 162 149 140 160 166 157 110 312 291 143 115 111 135 174 146 139 148 101 98 22 184 230 225 228 188 156 168 108 25 13 296 248 188 278 261 65 32 351 314 207 22
166 170 167 164 163 162 157 155 152 146 164 154 108 304 110 104 89 280 120 126 134 151 133 109 36 136 225 210 247 244 134 359 182 171 172 199 232 236 242 260 327 12 323 339 236 49 348
166 166 167 157 163 158 151 151 155 145 140 144 96 15 49 88 72 17 12 101 127 266 189 79 187 174 207 197 19 52 286 119 231 96 178 198 201 203 208 231 237 359 171 304 18 322 330
161 163 163 155 158 156 146 149 146 142 151 146 105 100 74 70 90 93 70 50 34 23 340 59 51 71 61 123 185 188 203 234 329 189 189 216 319 354 280 20 118 60 314 135 354 321 317